Location: Blue Mountain Vista Observatory
(40.6992°N, 75.9422°W)
Time: 12:30:40
(UTC-04:00)

Amateur Radio Satellites - All Passes

Search period start: 02 October 2014 12:00
Search period end: 03 October 2014 12:00
Location: Blue Mountain Vista Observatory, 40.6992°N, 75.9422°W

Satellite Date Start Highest point End Downlink Frequencies (MHz)
Time Altitude Azimuth
Sapphire 02 Oct 12:00:53 12:02:36 11° 323° (NW) 12:04:20 437.095 MHz 1200 baud AX-25 AFSK
Oscar 16 02 Oct 12:09:28 12:10:52 11° 58° (ENE) 12:12:15 437.025 USB, Beacon 2401.1428
HO-68 02 Oct 12:24:06 12:28:01 16° 307° (NW) 12:31:57 435.675 MHz FM
ZACube-1 02 Oct 12:26:22 12:30:02 24° 293° (WNW) 12:33:37 437.345 MHz
JAS-1B 02 Oct 12:45:25 12:50:32 22° 63° (ENE) 12:55:09 435.800 - 435.900 CW/SSB
Oscar 19 02 Oct 13:03:32 13:08:10 34° 68° (ENE) 13:12:48 437.125 CW, 437.150 USB
ITAMSAT 1 02 Oct 13:19:29 13:23:16 21° 63° (ENE) 13:27:05 435.822 SSB
Uribyol 2 02 Oct 13:19:48 13:23:45 23° 64° (ENE) 13:27:43 436.500 FM
AO-Echo 02 Oct 13:43:13 13:47:30 37° 70° (ENE) 13:51:50 ?
Oscar 16 02 Oct 13:44:10 13:49:22 84° 75° (ENE) 13:54:35 437.025 USB, Beacon 2401.1428
RS-15 02 Oct 13:52:31 14:00:44 24° 258° (WSW) 14:09:13 29.354 - 29.394 USB, Beacon 29.352 USB
AO-27 02 Oct 13:56:56 14:01:51 46° 70° (ENE) 14:06:49 436.795 MHz FM
Saudisat 1A 02 Oct 14:09:20 14:13:44 84° 121° (ESE) 14:18:09 436.775 MHz
Gurwin Techsat 1B 02 Oct 14:29:44 14:34:45 45° 70° (ENE) 14:39:48 435.225 FM
JAS-1B 02 Oct 14:33:11 14:40:48 68° 257° (WSW) 14:47:13 435.800 - 435.900 CW/SSB
Oscar 19 02 Oct 14:43:01 14:47:29 29° 264° (W) 14:51:59 437.125 CW, 437.150 USB
AO-7 02 Oct 14:49:51 14:56:14 26° 55° (NE) 15:02:36 29.400 - 29.500 MHz
TMSAT-1 02 Oct 14:57:13 15:02:24 60° 73° (ENE) 15:07:38 436.925 FM
ITAMSAT 1 02 Oct 14:57:24 15:02:24 49° 260° (W) 15:07:26 435.822 SSB
Uribyol 2 02 Oct 14:57:57 15:02:54 46° 261° (W) 15:07:55 436.500 FM
MaSat-1 02 Oct 15:05:02 15:08:20 65° 63° (ENE) 15:11:11 437.345 MHz
Uosat F 02 Oct 15:08:27 15:10:36 13° 59° (ENE) 15:12:45 435.120 FM
AO-Echo 02 Oct 15:22:48 15:26:24 22° 266° (W) 15:30:02 ?
Oscar 16 02 Oct 15:27:54 15:29:20 11° 271° (W) 15:30:46 437.025 USB, Beacon 2401.1428
AO-27 02 Oct 15:37:43 15:41:35 21° 267° (W) 15:45:28 436.795 MHz FM
Saudisat 1A 02 Oct 15:51:29 15:53:54 14° 320° (NW) 15:56:19 436.775 MHz
Gurwin Techsat 1B 02 Oct 16:10:50 16:14:55 22° 267° (W) 16:19:00 435.225 FM
KITSAT 1 02 Oct 16:23:38 16:30:58 40° 109° (ESE) 16:38:19 435.175 FM
TMSAT-1 02 Oct 16:39:24 16:42:43 17° 269° (W) 16:46:03 436.925 FM
AO-7 02 Oct 16:39:55 16:48:13 77° 254° (WSW) 16:56:32 29.400 - 29.500 MHz
Uosat F 02 Oct 16:43:42 16:48:41 81° 256° (WSW) 16:53:43 435.120 FM
OPAL 02 Oct 16:58:59 17:02:07 16° 94° (E) 17:05:13 ?
Oscar 10/S400 02 Oct 17:04:06 17:21:59 51° 159° (SSE) 18:06:18 145.825 - 145.975 CW/USB, Beacon 145.810 USB
JAS-2 02 Oct 17:12:12 17:16:46 32° 66° (ENE) 17:21:34 435.800 - 435.900 CW/SSB, 435.910 FM
Sapphire 02 Oct 17:18:33 17:22:15 18° 44° (NE) 17:25:55 437.095 MHz 1200 baud AX-25 AFSK
PCSat 02 Oct 17:43:25 17:48:05 28° 50° (NE) 17:52:43 145.825 MHz
Hamsat 02 Oct 18:07:29 18:11:49 86° 77° (ENE) 18:16:08 145.90 MHz
KITSAT 1 02 Oct 18:18:26 18:26:12 49° 309° (NW) 18:34:01 435.175 FM
OPAL 02 Oct 18:36:22 18:41:23 58° 290° (WNW) 18:46:17 ?
AO-7 02 Oct 18:38:30 18:42:14 14° 272° (W) 18:45:58 29.400 - 29.500 MHz
JAS-2 02 Oct 18:57:27 19:01:54 29° 265° (W) 19:06:35 435.800 - 435.900 CW/SSB, 435.910 FM
Sapphire 02 Oct 19:00:52 19:06:19 79° 243° (WSW) 19:11:44 437.095 MHz 1200 baud AX-25 AFSK
SO-67 02 Oct 19:11:22 19:14:44 57° 76° (ENE) 19:18:08 435.3500 MHz FM
HO-68 02 Oct 19:18:35 19:22:25 16° 52° (NE) 19:26:16 435.675 MHz FM
SO-50 02 Oct 19:26:05 19:30:34 86° 302° (WNW) 19:35:12 436.795 FM
PCSat 02 Oct 19:26:31 19:31:39 44° 248° (WSW) 19:36:45 145.825 MHz
AO-40 02 Oct 19:37:28 01:24:05 43° 183° (S) 08:18:49 Beacon 2401.320
STRAND 1 02 Oct 19:40:27 19:45:31 54° 100° (E) 19:50:33 ?
UOSAT-12 02 Oct 19:46:59 19:49:20 14° 108° (ESE) 19:51:43 437.025 FM, 437.400 FM
KITSAT 1 02 Oct 20:19:21 20:23:52 16° 334° (NNW) 20:28:24 435.175 FM
Oscar 11 02 Oct 20:35:12 20:35:40 10° 61° (ENE) 20:36:09 145.825 FM, Beacon 2401.500 USB
PANSAT 02 Oct 20:51:07 20:53:01 13° 179° (S) 20:54:56 not established
Saudisat 1A 02 Oct 21:00:05 21:00:13 10° 35° (NE) 21:00:22 436.775 MHz
HO-68 02 Oct 21:01:52 21:08:59 78° 72° (ENE) 21:16:09 435.675 MHz FM
UKube-1 02 Oct 21:02:52 21:06:30 27° 68° (ENE) 21:10:10 145.840 MHz, 145.915 MHz
SO-50 02 Oct 21:09:30 21:11:52 14° 322° (NW) 21:14:15 436.795 FM
STRAND 1 02 Oct 21:20:42 21:24:16 19° 297° (WNW) 21:27:51 ?
UOSAT-12 02 Oct 21:24:18 21:28:54 66° 305° (NW) 21:33:36 437.025 FM, 437.400 FM
ISS 02 Oct 21:28:03 21:31:10 39° 137° (SE) 21:34:18 145.800 FM
ZACube-1 02 Oct 21:45:58 21:49:45 26° 68° (ENE) 21:53:34 437.345 MHz
Oscar 11 02 Oct 22:06:50 22:11:12 79° 257° (WSW) 22:15:35 145.825 FM, Beacon 2401.500 USB
KITSAT 1 02 Oct 22:23:06 22:23:40 10° 6° (N) 22:24:14 435.175 FM
FUNcube-1 02 Oct 22:35:40 22:40:12 86° 77° (ENE) 22:44:51 145.950 - 145.970 MHz USB
Saudisat 1A 02 Oct 22:36:20 22:40:43 60° 55° (NE) 22:45:05 436.775 MHz
UKube-1 02 Oct 22:38:59 22:42:38 26° 264° (W) 22:46:18 145.840 MHz, 145.915 MHz
HO-68 02 Oct 22:52:37 22:57:22 19° 269° (W) 23:02:09 435.675 MHz FM
ISS 02 Oct 23:04:58 23:07:55 29° 334° (NNW) 23:10:52 145.800 FM
UOSAT-12 02 Oct 23:08:12 23:09:58 12° 325° (NW) 23:11:45 437.025 FM, 437.400 FM
ZACube-1 02 Oct 23:21:59 23:26:00 31° 264° (W) 23:30:06 437.345 MHz
KITSAT 1 03 Oct 00:16:48 00:22:54 23° 36° (NE) 00:28:57 435.175 FM
Saudisat 1A 03 Oct 00:17:29 00:19:47 14° 251° (WSW) 00:22:05 436.775 MHz
ISS 03 Oct 00:43:46 00:45:26 13° 354° (N) 00:47:07 145.800 FM
Oscar 19 03 Oct 01:17:39 01:19:16 11° 89° (E) 01:20:53 437.125 CW, 437.150 USB
AO-Echo 03 Oct 01:51:53 01:54:11 13° 90° (E) 01:56:30 ?
Oscar 16 03 Oct 01:56:42 02:01:13 30° 96° (E) 02:05:40 437.025 USB, Beacon 2401.1428
RS-15 03 Oct 02:01:18 02:12:01 59° 113° (ESE) 02:22:35 29.354 - 29.394 USB, Beacon 29.352 USB
AO-27 03 Oct 02:11:22 02:14:42 17° 92° (E) 02:18:02 436.795 MHz FM
KITSAT 1 03 Oct 02:11:30 02:19:38 80° 59° (ENE) 02:27:42 435.175 FM
JAS-1B 03 Oct 02:18:02 02:23:01 29° 97° (E) 02:28:23 435.800 - 435.900 CW/SSB
SO-50 03 Oct 02:18:54 02:21:21 14° 38° (NE) 02:23:50 436.795 FM
ISS 03 Oct 02:20:58 02:23:11 16° 15° (NNE) 02:25:23 145.800 FM
Gurwin Techsat 1B 03 Oct 02:47:10 02:50:48 18° 92° (E) 02:54:24 435.225 FM
Oscar 19 03 Oct 02:54:03 02:59:12 80° 285° (WNW) 03:04:19 437.125 CW, 437.150 USB
ITAMSAT 1 03 Oct 03:10:20 03:15:32 61° 101° (ESE) 03:20:41 435.822 SSB
Uribyol 2 03 Oct 03:10:41 03:15:54 65° 102° (ESE) 03:21:05 436.500 FM
TMSAT-1 03 Oct 03:13:59 03:18:16 24° 94° (E) 03:22:31 436.925 FM
AO-Echo 03 Oct 03:28:21 03:33:23 73° 285° (WNW) 03:38:34 ?
Oscar 16 03 Oct 03:35:59 03:40:31 32° 292° (WNW) 03:45:02 437.025 USB, Beacon 2401.1428
AO-27 03 Oct 03:49:26 03:54:35 58° 288° (WNW) 03:59:42 436.795 MHz FM
ISS 03 Oct 03:57:06 04:00:24 60° 34° (NE) 04:03:41 145.800 FM
SO-50 03 Oct 03:57:52 04:02:42 78° 57° (ENE) 04:07:35 436.795 FM
KITSAT 1 03 Oct 04:08:26 04:14:06 21° 257° (WSW) 04:19:46 435.175 FM
JAS-1B 03 Oct 04:08:35 04:13:46 37° 292° (WNW) 04:19:21 435.800 - 435.900 CW/SSB
OPAL 03 Oct 04:12:51 04:17:22 31° 65° (ENE) 04:21:54 ?
RS-15 03 Oct 04:14:23 04:24:43 44° 317° (NW) 04:35:04 29.354 - 29.394 USB, Beacon 29.352 USB
UOSAT-12 03 Oct 04:15:20 04:18:12 16° 39° (NE) 04:21:02 437.025 FM, 437.400 FM
Gurwin Techsat 1B 03 Oct 04:25:54 04:31:05 55° 288° (WNW) 04:36:14 435.225 FM
Oscar 19 03 Oct 04:37:00 04:37:40 10° 302° (WNW) 04:38:20 437.125 CW, 437.150 USB
AO-7 03 Oct 04:42:07 04:49:42 38° 98° (E) 04:57:13 29.400 - 29.500 MHz
MaSat-1 03 Oct 04:46:59 04:51:11 31° 108° (ESE) 04:55:15 437.345 MHz
ITAMSAT 1 03 Oct 04:51:07 04:54:31 18° 298° (WNW) 04:57:55 435.822 SSB
Uribyol 2 03 Oct 04:51:36 04:54:49 17° 299° (WNW) 04:58:01 436.500 FM
Uosat F 03 Oct 04:52:02 04:56:31 32° 97° (E) 05:01:00 435.120 FM
TMSAT-1 03 Oct 04:53:21 04:58:19 42° 290° (WNW) 05:03:16 436.925 FM
ISS 03 Oct 05:34:45 05:36:46 15° 230° (SW) 05:38:46 145.800 FM
SO-50 03 Oct 05:40:37 05:42:39 13° 253° (WSW) 05:44:40 436.795 FM
OPAL 03 Oct 05:51:27 05:56:08 34° 261° (W) 06:00:51 ?
UOSAT-12 03 Oct 05:54:14 05:58:59 85° 239° (WSW) 06:03:38 437.025 FM, 437.400 FM
Hamsat 03 Oct 05:54:55 05:57:22 15° 92° (E) 05:59:48 145.90 MHz
JAS-2 03 Oct 06:03:54 06:10:14 38° 97° (E) 06:17:06 435.800 - 435.900 CW/SSB, 435.910 FM
MaSat-1 03 Oct 06:23:18 06:27:33 31° 302° (WNW) 06:31:36 437.345 MHz
Uosat F 03 Oct 06:30:52 06:35:13 30° 293° (WNW) 06:39:33 435.120 FM
RS-15 03 Oct 06:33:27 06:41:01 20° 349° (N) 06:48:41 29.354 - 29.394 USB, Beacon 29.352 USB
AO-7 03 Oct 06:34:44 06:42:35 49° 296° (WNW) 06:50:27 29.400 - 29.500 MHz
STRAND 1 03 Oct 06:56:05 07:01:09 75° 74° (ENE) 07:06:16 ?
Hamsat 03 Oct 07:29:34 07:33:32 42° 287° (WNW) 07:37:28 145.90 MHz
JAS-2 03 Oct 07:48:55 07:55:13 43° 291° (WNW) 08:02:09 435.800 - 435.900 CW/SSB, 435.910 FM
Sapphire 03 Oct 08:02:19 08:04:50 13° 103° (ESE) 08:07:21 437.095 MHz 1200 baud AX-25 AFSK
SO-67 03 Oct 08:07:53 08:11:20 73° 101° (E) 08:14:46 435.3500 MHz FM
PCSat 03 Oct 08:25:33 08:29:51 25° 107° (ESE) 08:34:11 145.825 MHz
AO-7 03 Oct 08:31:34 08:33:23 11° 318° (NW) 08:35:11 29.400 - 29.500 MHz
HO-68 03 Oct 08:32:38 08:35:54 13° 88° (E) 08:39:10 435.675 MHz FM
STRAND 1 03 Oct 08:38:54 08:40:53 12° 270° (W) 08:42:53 ?
RS-15 03 Oct 08:49:59 08:58:48 26° 26° (NNE) 09:07:47 29.354 - 29.394 USB, Beacon 29.352 USB
Sapphire 03 Oct 09:42:07 09:47:31 79° 299° (WNW) 09:52:58 437.095 MHz 1200 baud AX-25 AFSK
Oscar 11 03 Oct 09:55:44 09:58:49 19° 93° (E) 10:01:52 145.825 FM, Beacon 2401.500 USB
PCSat 03 Oct 10:07:47 10:12:58 46° 305° (NW) 10:18:12 145.825 MHz
HO-68 03 Oct 10:17:21 10:24:35 83° 106° (ESE) 10:31:47 435.675 MHz FM
FUNcube-1 03 Oct 10:26:26 10:29:29 18° 92° (E) 10:32:28 145.950 - 145.970 MHz USB
UKube-1 03 Oct 10:26:38 10:30:54 51° 100° (E) 10:35:09 145.840 MHz, 145.915 MHz
RS-15 03 Oct 11:02:29 11:13:36 70° 54° (NE) 11:25:10 29.354 - 29.394 USB, Beacon 29.352 USB
ZACube-1 03 Oct 11:11:07 11:15:35 54° 100° (E) 11:19:54 437.345 MHz
Sapphire 03 Oct 11:28:54 11:31:50 15° 320° (NW) 11:34:47 437.095 MHz 1200 baud AX-25 AFSK
Oscar 11 03 Oct 11:31:08 11:35:06 36° 289° (WNW) 11:39:03 145.825 FM, Beacon 2401.500 USB
